Regional Weather Roundup
Issued by NWS

Home | Current Version | Previous Version | Graphics & Text | Print | Product List | Glossary On
Versions: 1 2 3 4 5 6 7 8 9 10 11 12 13 14 15 16 17 18 19 20 21 22 23 24 25 26 27 28 29 30 31 32 33 34 35 36 37 38 39 40 41 42 43 44 45 46 47 48 49 50
000
ASUS43 KLOT 160158
RWRIL

ILLINOIS REGIONAL WEATHER ROUNDUP
NATIONAL WEATHER SERVICE CHICAGO/ROMEOVILLE IL
900 PM CDT MON SEP 15 2014

NOTE: "FAIR" INDICATES FEW OR NO CLOUDS BELOW 12,000 FEET WITH NO
SIGNIFICANT WEATHER AND/OR OBSTRUCTIONS TO VISIBILITY.

* THESE STATIONS ARE NOT UNDER NWS QUALITY CONTROL. THEY ALSO MAY NOT
  REPORT WEATHER SUCH AS PRECIPITATION OR FOG.

ILZ001-002-007-009-015-016-024-160300-
NORTHWEST ILLINOIS

CITY           SKY/WX    TMP DP  RH WIND       PRES   REMARKS
MOLINE         CLEAR     54  48  80 CALM      30.20R
$$

ILZ003-004-008-010-011-017-018-160300-
NORTH CENTRAL ILLINOIS

CITY           SKY/WX    TMP DP  RH WIND       PRES   REMARKS
ROCKFORD       NOT AVBL
$$

ILZ005-006-012>014-019>023-160300-
NORTHEAST ILLINOIS

CITY           SKY/WX    TMP DP  RH WIND       PRES   REMARKS
CHICAGO-OHARE  PTCLDY    55  50  83 N8        30.15R
CHICAGO-MIDWAY CLOUDY    58  52  80 N13       30.14R
AURORA         CLOUDY    55  51  86 N8        30.16R
WAUKEGAN       CLEAR     50  47  89 NW3       30.15R
DUPAGE AIRPORT CLOUDY    55  51  86 N7        30.15R
WHEELING       CLEAR     53  48  83 N6        30.17R
NORTHERLY ISL    N/A     58  52  80 MISG        N/A
$$

LMZ740>746-160300-
SOUTHERN LAKE MICHIGAN

STATION/POSITION SKY/WX   TEMP    WIND        PRES    VSBY  WAVE
                          AIR SEA DIR/SP/G                  HT/PER
                          (F)     (DEG/KT/KT) (MB)    (MI)  (FT/S)
SOUTHERN BUOY              57 64   10/ 10/ 14 1019.9R         3/ 4
WAUKEGAN HARBOR            54     340/  8/ 10   N/A
HARRISON CRIB              58     360/ 15/ 17   N/A
BURNHAM HARBOR             58     340/  9/ 14   N/A
CALUMET HARBOR             58     350/  7/ 11 1019.0R
MICHIGAN CITY              60     340/ 11/ 14   N/A
MICHIGAN CITY 6N           60 64   10/ 14/ 17   N/A           2/ 2
ST. JOSEPH                 60 66   20/ 14/ 17   N/A           3/ 3
$$

ILZ025>027-034>036-040-047-049-050-058-095>099-160300-
WEST-CENTRAL ILLINOIS

CITY           SKY/WX    TMP DP  RH WIND       PRES   REMARKS
$$

ILZ028>032-037-038-041>044-048-051>054-059>061-160300-
CENTRAL ILLINOIS

CITY           SKY/WX    TMP DP  RH WIND       PRES   REMARKS
DECATUR        CLOUDY    59  56  89 N13       30.13R
PEORIA         NOT AVBL
SPRINGFIELD    CLEAR     57  55  93 N5        30.15R
TAYLORVILLE    NOT AVBL
$$

ILZ033-039-045-046-055>057-062-063-160300-
EAST-CENTRAL ILLINOIS

CITY           SKY/WX    TMP DP  RH WIND       PRES   REMARKS
CHAMPAIGN      CLOUDY    58  58 100 N8        30.12R FOG
MATTOON        CLOUDY    60  58  92 N9        30.11R FOG
$$

ILZ079-100>102-160300-
SOUTHWEST ILLINOIS

CITY           SKY/WX    TMP DP  RH WIND       PRES   REMARKS
BELLEVILLE     CLOUDY    63  63 100 W12       30.11R
CAHOKIA*       CLOUDY    64  61  90 N17G24    30.12R
$$

ILZ064>066-069>071-074>076-080>082-084>086-088>090-092>094-160300-
SOUTH-CENTRAL ILLINOIS

CITY           SKY/WX    TMP DP  RH WIND       PRES   REMARKS
CARBONDALE     LGT RAIN  70  66  87 W3        30.08R
$$

ILZ067-068-072-073-078-083-087-091-160300-
SOUTHEAST ILLINOIS

CITY           SKY/WX    TMP DP  RH WIND       PRES   REMARKS
LAWRENCEVILLE  LGT RAIN  63  61  93 CALM      30.08R FOG
$$

ABBREVIATIONS USED IN REMARKS
   TC - TEMPERATURE IN CELSIUS
  WCI - WIND CHILL INDEX
   HX - HEAT INDEX
  VSB - VISIBILITY
$$



USA.gov is the U.S. government's official web portal to all federal, state and local government web resources and services.